Regional Weather Roundup
Issued by NWS

Home | Current Version | Previous Version | Graphics & Text | Print | Product List | Glossary On
Versions: 1 2 3 4 5 6 7 8 9 10 11 12 13 14 15 16 17 18 19 20 21 22 23 24 25 26 27 28 29 30 31 32 33 34 35 36 37 38 39 40 41 42 43 44 45 46 47 48 49 50
535
ASUS43 KDMX 221806
RWRIA

WEATHER ROUNDUP FOR IOWA
NATIONAL WEATHER SERVICE DES MOINES IA
1200 PM CST MON JAN 22 2018

NOTE: "FAIR" INDICATES FEW OR NO CLOUDS BELOW 12,000 FEET WITH NO
SIGNIFICANT WEATHER AND/OR OBSTRUCTIONS TO VISIBILITY.

* - THESE STATIONS ARE NOT NWS STATIONS...THUS NOT UNDER NWS
QUALITY CONTROL.  THEY ALSO DO NOT REPORT WEATHER SUCH
AS PRECIPITATION OR FOG.

IAZ001>003-012>014-020>022-031>034-043>046-221900-
   NORTHWEST IOWA

CITY           SKY/WX    TMP DP  RH WIND       PRES   REMARKS
CARROLL *      MIX PCPN  34  34 100 N25G38    29.42R VSB 3/4 WCI  21
CHEROKEE *     LGT SNOW  31  31 100 N21G33    29.53S VSB 3/4 WCI  19
DENISON *      RAIN      34  34 100 NE30G39   29.44F VSB 1   WCI  20
LE MARS *      SNOW      30  28  93 N28G38    29.57F VSB<1/4 WCI  16
ORANGE CITY *  MIX PCPN  30  30 100 N23G32    29.58F WCI  17
SHELDON *      HVY RAIN  28  28 100 N33G39    29.59F VSB<1/4 WCI  12
SIOUX CITY     SNOW      29  28  96 N29G38    29.55F VSB 1/2 WCI  14
6HR MIN TEMP:  28; 6HR MAX TEMP:  33; 6HR PCP:  0.55;

SPENCER        FOG       30  29  96 N36G46    29.55F VSB 1/4 WCI  14
6HR MIN TEMP:  30; 6HR MAX TEMP:  33; 6HR PCP: TRACE;

STORM LAKE *   HVY RAIN  30  30 100 N36G46    29.48F VSB 1/4 WCI  14
$$

IAZ055>058-069>071-079>083-090>094-221900-
   SOUTHWEST IOWA

CITY           SKY/WX    TMP DP  RH WIND       PRES   REMARKS
ATLANTIC *     CLOUDY    37  37 100 NE14G23   29.38F WCI  29
AUDUBON *      LGT RAIN  36  34  93 N18G24    29.39F WCI  25
CLARINDA *     CLOUDY    37  37 100 CALM        N/A  FOG
COUNCIL BLFS * LGT RAIN  34  34 100 N20G29    29.41S VSB 1   WCI  22
CRESTON *      CLOUDY    37  37 100 S14       29.38F WCI  29
HARLAN  *      CLOUDY    36  36 100 N22G32    29.43S WCI  24
LAMONI         CLOUDY    37  33  85 S16       29.40F WCI  28
6HR MIN TEMP:  37; 6HR MAX TEMP:  49; 6HR PCP: TRACE;

RED OAK *      CLOUDY    39  39 100 N10       29.39S WCI  32
SHENANDOAH *   CLOUDY    37  36  93 N10       29.40S WCI  30
$$

IAZ047>049-059>061-072>074-084-221900-
   CENTRAL IOWA

CITY           SKY/WX    TMP DP  RH WIND       PRES   REMARKS
AMES           CLOUDY    38  38 100 NE9       29.39F WCI  31
6HR MIN TEMP:  38; 6HR MAX TEMP:  39; 6HR PCP:  0.11;

ANKENY *       CLOUDY    48  43  81 S9        29.38F
BOONE *        CLOUDY    37  37 100 NE17      29.37F WCI  28
CHARITON *     CLOUDY    41  36  81 S16G24    29.41S
DES MOINES     CLOUDY    46  42  86 S14       29.37F
6HR MIN TEMP:  39; 6HR MAX TEMP:  47; 6HR PCP:  0.02;

GRINNELL*      PTSUNNY   48  42  80 S15       29.41F
KNOXVILLE *    CLOUDY    45  37  76 S16G23    29.39S
MARSHALLTOWN   CLOUDY    39  39 100 NE14      29.38F WCI  31
6HR MIN TEMP:  37; 6HR MAX TEMP:  39; 6HR PCP:  0.09;

NEWTON *       PTSUNNY   48  43  81 S14       29.39F
PELLA *        PTSUNNY   46  39  77 S16       29.42F
PERRY *        CLOUDY    41  40  99 E8        29.36F FOG
$$

IAZ004>006-015-016-023>025-035-036-221900-
   NORTH CENTRAL IOWA

CITY           SKY/WX    TMP DP  RH WIND       PRES   REMARKS
ALGONA *       SNOW      32 N/A N/A N30G37    29.48F VSB 1/4 WCI  18
CLARION *      CLOUDY    34  34 100 NE21      29.44S WCI  22
ESTHERVILLE    FOG       28  28 100 N28G35    29.58F VSB 1/4 WCI  13
6HR MIN TEMP:  28; 6HR MAX TEMP:  31; 6HR PCP:  0.05;

FORT DODGE *   MIX PCPN  33  32  96 N17G25    29.44F FOG     WCI  22
MASON CITY     HVY SNOW  32  31  96 N21G40    29.48F VSB 1/4 WCI  20
6HR MIN TEMP:  32; 6HR MAX TEMP:  35; 6HR PCP:  0.45;

FOREST CITY *  SNOW      34  34 100 NE18      29.50F VSB 1/2 WCI  23
WEBSTER CITY * CLOUDY    36  34  93 NE21G26   29.39F WCI  24
IOWA FALLS *   DRIZZLE   37  35  95 NE15G22   29.43F WCI  27
$$

IAZ007>011-017>019-026>030-037>042-050>054-066-221900-
   NORTHEAST IOWA

CITY           SKY/WX    TMP DP  RH WIND       PRES   REMARKS
CEDAR RAPIDS     N/A     51  51 100 S8        29.39F
6HR MIN TEMP:  41; 6HR MAX TEMP:  49; 6HR PCP:  0.03;

CHARLES CITY * LGT SNOW  34  34 100 NE18      29.46F WCI  23
CLINTON *      CLOUDY    50  50 100 S8        29.43F
DECORAH *      LGT SNOW  34  34 100 E8        29.50R WCI  27
DUBUQUE        CLOUDY    39  39 100 N6        29.43F FOG     WCI  35
6HR MIN TEMP:  36; 6HR MAX TEMP:  39; 6HR PCP:  0.27;

MONTICELLO *   CLOUDY    41  41 100 NE7       29.41F
OELWEIN *      PTSUNNY   36  36 100 NE15      29.43F WCI  26
WATERLOO       CLOUDY    37  35  92 NE12      29.43F WCI  29
6HR MIN TEMP:  36; 6HR MAX TEMP:  37; 6HR PCP:  0.43;

$$

IAZ064-065-067-068-078-221900-
   EAST CENTRAL IOWA

CITY           SKY/WX    TMP DP  RH WIND       PRES   REMARKS
DAVENPORT        N/A     57  48  72 S12G22    29.43F
6HR MIN TEMP:  42; 6HR MAX TEMP:  57;

IOWA CITY        N/A     54  39  57 SW16G25   29.42F
6HR MIN TEMP:  43; 6HR MAX TEMP:  54; 6HR PCP:  0.02;

MT. PLEASANT * SUNNY     50  34  53 SW26G32   29.44F
MUSCATINE *    CLOUDY    55  41  58 SW17      29.43F
QUAD CITIES    PTSUNNY   58  49  72 S20G29    29.41F
6HR MIN TEMP:  48; 6HR MAX TEMP:  58; 6HR PCP:  0.01;

$$

IAZ062-063-075>077-085>089-095>099-221900-
   SOUTHEAST IOWA

CITY           SKY/WX    TMP DP  RH WIND       PRES   REMARKS
BURLINGTON     MOSUNNY   53  40  61 SW21G30   29.44S
6HR MIN TEMP:  49; 6HR MAX TEMP:  56; 6HR PCP: TRACE;

FAIRFIELD *    MOSUNNY   48  32  53 SW22G31   29.43F
FORT MADISON * SUNNY     52  39  62 SW20G26   29.45F
KEOKUK *       MOSUNNY   52  37  58 SW23G31   29.44F
OSKALOOSA *      N/A     44  34  68 SW22      29.43F
OTTUMWA        PTSUNNY   45  35  68 SW13      29.43S
6HR MIN TEMP:  44; 6HR MAX TEMP:  53;

WASHINGTON *   SUNNY     52  39  62 SW16G26   29.43F
$$

ABBREVIATIONS USED IN REMARKS
   TC - TEMPERATURES IN CELSIUS
  WCI - WIND CHILL INDEX
   HX - HEAT INDEX
  VSB - VISIBILITY
$$





USA.gov is the U.S. government's official web portal to all federal, state and local government web resources and services.